Dewpoint
68 68 67 66 66 67 68 68 69 68 67 67 67 66 67 67 67 67 67 67 67 67 67 67 67 67 67 67 67 67 67 67 67 67 67 67 67 67 67 67 67 67 67 67 68 67 67 68 68 68 68 68 68 68 68 68 68 68 68 68 68 68 68 68 67 67 66 66 66 65 65 65 64 64 64 64 64 64 63 63 63 63 63 63 63 63 63 63 63 63 63 63 62 62 62 61 61 58 55 52 51 49 51
67 67 65 65 65 65 66 67 68 69 69 68 67 67 66 67 67 67 67 67 67 66 66 66 66 67 67 67 67 67 67 67 67 67 67 67 67 67 67 67 67 67 67 67 67 67 67 67 67 67 67 68 68 67 68 68 68 68 68 68 68 68 67 67 67 66 66 66 65 65 65 65 64 64 64 64 63 63 63 63 63 63 63 63 63 63 63 63 62 62 62 61 61 61 61 61 60 57 55 53 52 51 51
67 66 65 65 65 65 65 66 68 68 69 69 68 67 67 66 66 66 66 66 66 66 66 66 66 66 66 66 66 66 66 66 66 66 66 66 66 66 66 66 66 67 67 67 67 67 67 67 67 67 67 67 67 66 66 67 68 68 68 68 68 67 67 67 66 66 66 65 65 65 65 64 64 64 64 63 63 63 63 63 63 63 63 63 62 62 62 62 62 61 61 60 60 60 60 60 58 56 55 54 53 52 51
66 66 66 66 66 66 66 67 67 68 69 69 69 68 67 67 66 66 66 66 66 65 65 65 65 65 65 66 66 66 66 66 66 66 66 66 66 66 66 66 66 66 66 67 67 67 67 67 67 67 67 67 66 65 66 67 67 67 67 67 67 67 67 66 66 66 65 65 65 65 65 64 64 64 63 63 63 62 62 62 63 62 62 62 62 62 62 62 61 61 60 60 60 59 57 55 54 53 53 54 54 53 52
65 65 66 66 66 66 67 67 67 67 68 68 69 68 68 67 66 66 66 65 65 65 65 65 65 65 65 65 65 65 65 65 66 66 66 66 66 66 66 65 65 65 65 66 67 67 67 67 67 67 66 66 65 66 66 67 67 67 67 67 67 67 67 66 66 65 65 65 65 65 64 64 64 63 63 62 62 62 62 62 62 62 62 62 62 62 62 61 61 60 60 60 60 57 53 50 51 51 51 52 53 54 53
64 65 65 65 65 65 66 66 66 66 67 68 68 68 68 67 66 66 66 66 65 65 65 65 65 65 65 65 65 65 65 65 66 66 66 65 65 65 65 65 65 65 65 65 65 65 66 67 67 66 66 65 65 66 66 66 67 67 67 67 67 67 66 66 66 65 65 65 65 64 64 64 63 63 62 62 61 61 61 61 61 62 62 62 62 62 62 61 61 60 60 60 59 53 50 49 49 49 50 51 52 52 52
61 63 64 64 65 65 65 65 65 65 66 67 68 68 68 67 66 67 66 66 66 65 65 65 65 65 65 65 65 65 65 66 66 66 65 65 65 65 65 65 65 64 64 64 64 64 65 66 66 66 66 65 65 65 66 66 66 66 66 67 67 66 66 66 65 65 65 65 64 64 64 63 63 62 62 61 61 61 61 60 59 60 60 60 61 61 61 61 61 60 60 59 56 51 49 48 48 48 49 50 51 51 51
57 59 60 62 63 64 64 64 64 65 65 66 67 68 67 67 66 66 66 66 66 66 65 65 65 65 65 65 65 65 66 66 66 66 66 65 65 65 65 65 65 64 64 64 64 64 64 65 65 65 66 65 65 65 65 65 66 66 66 66 66 66 66 66 65 65 65 65 64 64 63 63 63 62 62 61 61 61 61 60 56 56 56 56 58 60 60 61 61 60 58 56 51 50 48 47 47 48 49 49 50 50 50
51 53 56 58 60 61 62 63 63 64 65 65 66 67 66 66 65 65 66 66 66 65 65 65 65 65 65 65 65 65 65 65 65 65 65 65 65 65 65 65 65 64 64 64 64 64 64 65 65 65 65 65 65 65 65 65 65 65 65 66 66 66 66 66 65 65 65 65 64 63 63 63 62 62 62 61 61 61 60 58 55 53 53 53 54 56 58 60 60 59 56 52 50 49 48 47 47 47 48 48 48 49 49
45 47 50 52 55 57 59 61 63 63 64 65 65 65 65 65 65 65 65 65 65 65 65 65 65 65 65 65 65 65 64 64 64 64 64 64 64 64 64 65 65 65 64 64 64 65 65 65 65 65 65 65 65 65 65 65 65 65 65 65 65 66 66 65 65 65 65 65 64 63 63 62 62 62 62 61 61 60 58 56 53 52 52 52 52 53 54 56 56 54 52 50 49 48 47 47 47 47 47 47 47 47 47
40 43 45 47 49 51 53 56 59 62 63 64 64 64 64 64 65 65 65 65 64 64 64 64 64 65 65 65 64 64 63 63 63 63 64 64 63 63 64 64 64 64 64 64 64 64 65 65 65 65 65 64 64 65 65 65 65 65 65 65 65 65 65 65 64 65 64 64 64 63 63 62 62 62 61 60 59 58 56 54 52 51 51 52 52 51 51 51 51 51 50 49 48 47 47 47 47 47 47 47 45 46 46
34 39 42 44 44 45 47 51 55 59 61 63 63 63 63 64 65 65 65 64 63 63 64 64 65 65 64 64 63 63 63 63 63 63 64 63 63 63 63 63 63 63 64 64 64 64 64 64 65 65 64 64 64 64 64 64 64 64 64 64 64 65 65 64 63 63 63 63 63 62 62 61 61 61 60 58 57 56 55 54 52 52 51 51 52 51 51 50 51 50 50 49 47 47 47 48 47 48 48 47 45 44 44
30 35 40 43 42 42 44 47 52 56 60 61 62 63 63 64 64 64 63 63 63 63 63 63 64 64 63 63 63 63 63 63 63 63 63 63 63 63 63 63 63 63 63 63 63 63 63 64 64 64 64 64 64 64 64 64 64 64 64 64 64 64 64 63 62 62 62 62 62 61 60 60 59 59 59 58 57 56 55 54 53 53 53 52 52 51 51 50 50 50 49 49 48 47 47 48 47 48 48 47 45 44 43
29 31 36 40 41 41 42 45 49 54 57 60 61 63 63 64 64 63 63 62 62 62 62 62 63 62 62 62 62 63 63 63 63 63 63 63 63 63 63 63 63 63 63 63 63 63 63 63 63 63 64 64 64 64 64 64 63 63 63 63 63 63 63 63 63 62 61 61 61 60 60 59 58 58 58 58 57 56 56 55 54 53 54 54 53 52 51 51 50 49 49 49 48 47 47 47 47 48 48 47 45 43 42
28 29 32 36 39 40 40 42 45 50 54 58 60 61 62 63 63 63 63 62 62 62 61 61 62 62 62 62 62 62 62 62 63 63 63 63 63 63 63 62 62 62 62 62 62 62 62 62 62 63 63 64 64 64 64 64 64 63 63 63 63 63 63 63 62 62 61 61 60 60 60 59 59 58 58 58 57 56 55 54 53 53 53 54 53 53 52 51 51 50 49 49 49 48 48 48 48 48 48 47 45 43 42
27 28 30 33 38 38 39 40 42 47 51 55 57 58 60 62 63 63 63 63 62 61 61 61 61 62 61 61 61 62 62 62 62 62 62 62 62 62 62 62 62 62 62 62 62 62 63 63 63 63 63 63 64 64 64 64 64 64 63 63 63 62 62 62 62 62 61 61 60 60 60 59 59 59 58 58 56 56 55 54 53 53 53 52 52 52 51 51 51 50 50 49 49 49 48 48 48 48 47 47 45 43 42
26 27 29 31 34 36 38 39 40 43 47 51 53 54 56 59 61 62 62 62 62 62 61 61 61 61 61 61 61 61 61 61 62 62 62 62 62 62 62 62 62 62 62 62 61 62 62 62 62 63 63 63 63 64 64 64 64 64 64 63 63 62 62 62 62 62 61 61 60 60 60 59 59 59 58 57 56 56 55 55 54 54 53 53 52 51 51 51 51 50 50 49 49 49 49 49 48 48 47 46 45 42 41
26 27 28 29 31 34 37 38 38 41 43 45 48 50 52 55 58 61 62 62 62 61 61 61 61 61 61 61 61 61 61 61 61 61 61 61 61 61 62 62 62 62 61 61 61 61 61 62 62 62 63 63 63 63 64 64 64 64 64 64 64 64 63 62 62 62 61 61 60 60 60 59 59 59 58 57 57 57 56 56 55 55 54 54 53 52 51 51 51 51 50 49 49 49 49 49 49 48 47 46 44 43 42
27 28 28 28 29 34 36 37 36 40 41 42 43 46 48 51 55 59 60 61 61 61 61 61 61 61 61 61 61 61 61 61 61 61 61 61 61 61 61 61 61 61 61 61 61 61 61 62 62 62 62 62 63 63 64 64 64 64 64 64 64 64 63 63 63 62 62 61 60 60 60 59 59 59 58 58 58 57 57 56 56 56 55 54 54 53 53 52 51 51 50 50 50 49 48 48 48 47 46 46 44 43 42
27 27 28 28 28 31 33 34 35 37 38 41 43 44 46 48 51 56 59 60 60 60 60 60 60 61 61 61 60 60 61 61 61 61 60 60 61 61 61 61 61 60 60 60 60 60 61 61 61 61 61 61 62 62 62 63 63 63 63 63 63 63 62 62 62 63 62 62 61 61 60 60 60 60 59 58 58 57 57 57 57 56 56 55 54 54 54 53 51 51 51 50 49 49 48 48 47 47 46 45 43 42 41
27 27 28 29 28 30 31 31 31 33 37 40 42 43 44 46 49 52 56 59 60 60 60 60 60 60 60 60 60 60 60 61 61 61 61 61 61 61 61 61 61 61 61 61 60 60 61 61 61 60 61 61 61 61 61 61 61 62 62 62 62 62 62 62 62 62 62 62 61 61 61 60 60 60 59 59 58 57 57 57 57 56 56 56 55 54 54 53 52 52 51 51 50 50 49 48 47 46 45 44 43 42 40
27 26 28 29 28 32 34 33 29 32 35 39 43 43 45 46 47 49 52 56 59 59 59 59 59 58 58 59 59 59 60 60 60 60 60 60 60 60 60 60 61 61 61 61 61 61 61 60 60 60 61 61 61 61 61 61 61 61 61 61 62 62 62 62 62 62 62 62 62 61 61 61 60 60 60 59 59 58 57 57 56 56 56 55 55 54 54 54 53 53 52 51 51 50 49 48 47 46 45 43 42 40 39
26 26 27 28 28 29 31 31 29 31 33 37 42 43 44 45 46 47 49 52 54 55 56 56 57 57 57 58 58 59 59 59 59 59 59 58 58 58 59 60 60 60 60 61 61 61 61 61 61 61 61 61 61 61 61 61 61 61 61 61 62 62 62 62 62 62 62 62 62 62 61 61 61 60 60 60 59 58 57 57 57 56 56 55 55 54 54 54 53 53 52 52 51 50 49 48 47 46 44 42 40 39 38
27 26 27 29 29 28 31 32 29 29 30 33 38 40 41 42 43 45 47 47 48 49 51 52 53 55 56 56 57 58 58 58 57 57 56 56 55 56 56 57 57 58 58 58 59 60 60 60 60 60 60 60 60 60 60 61 61 61 61 61 62 62 62 62 62 62 62 62 62 62 61 61 61 60 60 60 59 59 58 58 57 56 56 55 55 54 54 53 53 52 52 52 51 51 50 48 47 45 43 41 39 38 36
28 27 27 28 29 28 30 31 28 28 29 30 32 33 34 37 38 41 43 44 44 46 47 49 50 52 53 54 55 56 56 55 55 54 53 52 51 51 52 52 53 54 54 54 54 56 57 58 59 60 60 60 60 60 60 60 61 61 61 61 62 62 62 62 62 62 62 62 62 61 61 61 61 60 60 60 60 59 58 58 57 56 56 55 54 54 53 53 52 51 51 51 51 50 49 48 46 44 42 40 38 36 35
28 28 27 27 30 28 28 29 29 29 29 30 32 32 33 34 36 38 40 42 43 43 45 47 48 49 51 51 52 53 53 53 51 51 50 49 47 48 48 48 49 50 50 50 50 52 54 55 56 58 59 59 60 60 60 60 60 61 61 61 62 62 62 62 61 61 61 61 61 61 61 60 60 60 60 60 60 59 58 58 57 56 56 55 54 53 53 52 52 51 51 50 49 49 48 47 45 44 42 40 37 35 34
28 28 26 27 30 28 28 29 30 29 29 30 31 31 32 33 35 37 38 40 42 42 42 44 46 47 48 49 51 51 51 50 49 48 47 47 45 46 46 47 47 47 47 48 48 49 51 53 55 56 57 58 59 59 60 60 60 61 61 61 61 62 62 62 62 61 61 61 61 60 60 60 60 60 60 60 60 59 58 58 57 57 56 55 54 54 54 54 53 52 51 50 48 47 47 46 44 43 42 39 36 34 33
29 29 27 26 31 29 28 29 33 30 31 32 30 32 32 33 34 35 38 39 40 41 41 42 44 45 46 47 48 49 48 48 47 46 46 45 44 44 45 45 45 46 47 47 47 48 49 51 53 55 56 56 57 58 59 60 60 60 61 61 61 61 61 61 61 61 61 60 60 60 60 60 60 60 60 60 60 59 59 58 58 57 56 56 55 55 55 55 55 54 53 51 48 47 45 44 43 42 41 38 36 34 33
29 30 28 26 30 29 27 27 29 29 29 29 28 30 32 32 33 33 35 37 37 38 38 40 43 44 45 46 47 47 46 46 46 45 44 44 42 43 44 44 45 45 46 46 47 47 48 49 51 52 53 54 55 56 56 58 59 59 60 60 61 61 61 61 61 61 61 60 60 60 60 60 60 60 60 59 59 59 59 58 58 58 57 56 56 55 55 55 55 55 54 52 50 47 45 42 42 41 40 38 34 33 32
28 30 28 25 26 28 26 24 25 27 28 27 26 28 29 30 31 32 34 36 36 37 37 38 41 42 43 44 45 45 45 45 45 44 43 42 42 42 42 44 44 44 45 46 46 47 47 47 48 49 50 51 52 53 54 56 57 57 58 59 60 61 61 61 61 61 60 60 60 60 60 60 60 60 59 59 59 59 59 58 58 58 57 56 56 55 55 55 55 55 54 53 51 47 44 42 41 41 39 37 34 33 32
28 29 28 24 24 25 25 25 25 27 28 28 27 27 27 28 29 29 31 34 36 36 36 37 38 41 42 43 44 45 46 46 45 43 42 42 41 41 41 42 44 44 44 45 46 46 47 47 47 47 48 49 50 51 51 53 54 54 56 57 59 60 60 61 61 61 61 60 60 60 60 60 60 60 59 59 58 59 58 58 58 57 56 56 55 55 55 55 54 54 54 52 49 47 44 42 40 40 39 38 34 33 32
27 29 27 25 24 24 25 25 25 26 27 27 27 27 28 28 27 28 29 31 33 34 35 36 37 38 40 42 43 43 44 44 44 43 42 41 41 40 41 42 43 43 44 44 45 46 47 47 45 47 47 47 48 49 50 51 51 52 54 56 57 59 60 60 61 61 61 61 60 60 60 60 60 60 60 59 59 59 58 58 57 56 56 56 55 55 54 54 54 53 53 52 50 47 44 41 39 39 39 38 36 33 32
25 27 28 27 24 25 25 25 26 25 26 27 27 27 27 27 27 28 29 30 32 34 34 35 36 37 39 40 41 41 41 42 42 42 42 41 40 39 39 40 42 42 42 43 45 45 46 46 45 45 46 46 47 47 47 48 49 50 52 54 55 56 58 59 60 60 60 60 60 60 60 60 60 60 60 60 59 59 58 58 57 56 56 56 55 55 54 54 53 53 53 52 51 48 45 41 39 39 40 40 38 34 33
25 27 29 30 28 25 24 24 25 25 27 28 27 27 28 28 28 28 29 30 31 33 33 33 33 35 38 39 40 40 39 39 39 41 41 40 38 38 38 39 41 41 41 42 44 45 45 45 44 45 45 45 45 46 46 47 47 48 50 52 53 54 55 56 57 58 59 60 60 60 60 59 59 59 59 59 59 58 58 58 57 57 56 56 55 55 54 53 53 53 52 51 51 48 45 42 39 39 40 42 41 36 34
26 26 28 29 29 25 24 24 24 25 26 27 28 28 28 28 28 29 29 29 30 31 31 30 32 33 36 38 40 40 39 39 39 40 40 39 38 38 38 38 40 41 41 41 42 44 44 44 44 44 44 44 44 44 45 45 46 47 48 50 51 52 53 54 55 55 56 58 59 60 60 59 59 59 59 59 59 58 58 58 58 57 57 56 55 54 54 53 53 52 52 51 50 47 45 42 39 39 40 42 41 38 36
26 25 25 25 27 25 24 24 24 25 26 26 28 28 28 28 28 29 29 28 29 29 29 29 31 32 33 35 37 38 38 39 39 39 38 36 36 37 38 39 40 40 40 41 41 43 44 44 43 43 43 43 42 43 43 44 44 45 46 47 49 50 51 52 52 53 53 55 56 57 58 59 59 59 59 59 59 59 58 58 58 58 57 57 56 55 54 54 54 53 52 51 49 47 44 42 40 40 40 40 41 39 38
24 24 23 23 24 24 24 24 24 24 25 25 25 26 27 27 28 29 28 27 28 28 28 29 30 31 32 33 34 36 37 37 37 36 35 34 34 37 38 39 40 41 41 42 42 42 43 43 43 42 42 42 41 42 42 42 42 43 43 44 47 48 50 51 51 51 51 52 53 54 55 56 57 58 58 59 59 59 59 59 58 58 58 57 56 56 55 55 54 54 53 51 49 47 45 43 41 41 40 40 40 41 39
23 23 22 21 22 23 24 24 24 23 23 23 23 24 24 25 26 27 27 27 27 26 26 28 29 31 31 32 33 34 35 36 35 35 34 33 34 35 36 38 40 40 41 41 42 42 42 42 42 42 42 41 41 41 41 41 41 42 42 42 44 46 48 50 50 50 50 51 51 51 52 53 54 56 57 58 58 58 58 59 59 59 58 57 56 56 55 55 55 54 53 52 51 49 47 46 46 43 41 39 39 40 40
24 22 20 20 21 22 23 23 23 22 22 22 22 23 23 24 24 25 25 26 25 26 26 28 29 30 31 31 32 34 34 34 34 34 34 33 33 34 35 36 38 39 39 39 40 40 41 42 42 42 41 41 40 41 40 40 39 41 41 41 42 44 47 49 50 49 49 50 50 50 51 51 52 53 55 56 56 57 57 58 58 58 58 57 56 55 54 53 53 53 53 53 52 51 51 50 50 47 42 39 39 39 40
24 22 21 20 21 22 22 22 23 22 21 21 22 23 23 23 24 23 24 24 25 26 27 28 28 29 30 31 31 33 34 34 33 33 33 33 33 34 35 36 36 37 38 38 39 39 40 40 42 41 40 40 40 40 39 39 39 40 40 40 41 42 45 47 49 48 48 48 49 49 49 49 50 50 51 52 53 55 56 57 58 58 57 56 55 54 52 51 51 51 52 52 52 52 52 52 51 48 45 42 39 39 39
23 23 22 21 22 22 21 21 22 23 22 22 22 23 23 24 25 25 24 24 26 26 27 27 28 29 29 30 31 33 34 34 33 33 33 33 33 33 34 35 36 37 38 38 39 40 41 41 41 41 40 40 40 39 39 39 39 40 40 40 41 42 44 46 47 46 46 46 47 47 47 48 48 48 49 51 51 52 54 56 57 57 57 56 54 53 52 51 51 51 51 51 51 52 52 51 51 49 47 45 41 39 39
22 23 23 23 22 22 21 21 21 24 24 24 22 22 24 25 27 27 26 25 26 27 27 27 29 30 30 31 32 33 33 33 33 33 33 33 33 33 33 34 35 36 37 38 38 39 40 41 41 41 40 40 40 39 38 38 39 40 40 40 41 41 42 43 44 44 44 44 45 46 47 47 47 48 49 50 51 51 52 53 54 56 56 56 55 53 53 52 51 51 50 50 50 51 51 51 50 49 48 46 43 40 39
22 23 23 23 22 22 21 20 21 23 26 27 20 22 23 24 25 27 27 26 26 27 27 27 27 28 31 33 34 33 33 33 33 32 31 31 31 31 32 33 34 35 36 37 37 38 39 40 41 40 40 40 40 39 39 39 39 40 40 41 41 41 40 41 42 42 43 43 44 45 45 46 47 48 48 48 49 50 50 51 51 53 55 56 56 55 53 52 51 50 49 49 49 48 49 49 49 49 48 47 45 42 40
22 22 23 23 22 22 21 20 20 22 27 29 24 23 24 26 27 26 26 26 26 28 28 27 25 29 30 31 32 32 32 32 32 31 30 29 29 30 32 33 34 34 34 35 36 37 38 39 40 39 39 39 39 39 39 39 39 39 40 40 41 41 40 40 41 41 42 42 43 43 44 45 45 47 47 47 47 47 48 49 50 51 53 55 56 56 54 52 50 50 49 49 49 48 47 47 47 48 48 47 46 44 42
21 21 22 22 22 21 21 20 20 22 26 28 24 23 25 26 24 24 24 24 26 27 28 28 28 30 31 31 30 29 29 29 30 30 30 30 30 31 32 33 34 34 34 34 35 36 37 38 38 38 38 38 39 39 39 39 39 39 40 40 41 41 40 39 39 40 41 42 42 43 44 44 45 45 46 46 45 45 46 47 49 50 52 53 54 55 55 53 51 50 49 49 48 48 47 47 47 47 48 48 47 45 44
21 21 21 22 22 21 21 21 20 20 22 23 22 23 24 24 21 22 23 23 23 24 25 25 25 25 27 28 26 26 27 29 30 29 30 31 32 32 32 32 33 34 34 34 34 35 36 37 37 38 38 38 39 39 39 39 40 39 40 40 40 41 40 39 38 39 40 41 42 42 43 44 44 44 44 44 45 44 44 46 47 48 50 51 50 51 53 55 54 51 49 48 47 47 47 47 47 49 49 49 48 47 45
19 20 21 22 22 22 21 21 20 20 20 20 22 23 23 23 21 22 22 22 21 22 23 23 22 22 23 24 24 24 25 26 28 28 28 29 30 31 32 33 33 33 34 34 34 35 36 37 37 37 37 37 38 38 38 38 39 39 39 40 40 41 40 39 38 39 39 40 41 42 42 43 44 43 42 43 44 44 44 44 45 46 47 48 49 49 51 53 55 54 52 51 49 47 47 47 48 50 49 48 49 49 49
18 19 20 21 22 22 21 21 21 20 20 20 24 24 23 22 22 21 21 21 21 21 21 22 21 20 21 22 22 24 25 26 26 26 27 29 30 31 32 33 33 33 33 33 33 34 35 36 36 36 37 37 38 38 38 38 38 39 39 39 40 41 41 40 38 38 39 39 40 41 42 43 44 43 42 41 42 42 43 43 42 43 44 46 47 48 49 51 53 54 55 55 54 52 51 49 49 49 48 48 48 49 49
18 18 20 20 21 21 22 22 22 20 20 21 25 24 22 21 22 21 21 21 21 21 21 21 20 19 20 22 25 27 28 28 27 28 29 30 31 31 32 33 33 33 33 33 33 34 35 36 36 36 36 37 38 38 38 38 38 38 39 39 40 41 41 40 38 38 39 40 40 42 42 43 43 42 41 40 39 40 41 41 40 41 42 43 44 46 47 49 51 52 53 54 54 54 54 53 51 50 49 48 47 47 47
18 18 19 20 20 23 25 26 24 21 20 21 23 23 21 21 22 21 21 20 21 22 22 21 20 19 19 22 25 27 28 29 29 29 29 29 29 29 30 32 33 32 32 32 33 33 34 35 35 35 35 36 37 37 37 37 38 38 38 39 39 41 40 39 38 39 39 40 41 42 42 42 42 42 41 40 38 39 39 39 39 39 40 41 42 43 45 47 49 50 50 51 51 53 53 53 53 51 50 49 48 47 47
18 18 18 19 20 23 27 29 26 23 21 21 21 24 23 21 22 21 20 20 21 24 24 22 20 19 19 20 23 25 27 29 29 29 29 28 27 29 30 31 32 32 32 32 33 33 34 34 35 35 35 36 37 37 37 37 37 38 38 38 39 41 40 39 39 39 39 40 41 41 41 42 42 41 41 40 39 38 38 38 38 38 38 40 41 41 43 45 47 48 48 49 49 51 52 53 53 53 52 51 50 49 47
15 18 19 19 20 20 23 25 24 22 23 24 22 24 24 24 23 21 20 20 20 22 22 21 20 20 21 22 24 27 29 30 29 29 28 27 27 29 29 31 31 32 32 32 33 33 34 34 34 34 35 36 37 37 36 36 36 37 38 38 39 40 40 39 38 38 39 39 39 40 40 40 40 40 39 39 38 38 38 38 39 36 37 38 40 40 42 43 45 46 47 48 48 49 50 51 53 53 53 52 51 51 49
13 15 18 20 20 19 20 20 20 19 23 26 23 22 24 26 27 23 21 20 20 20 20 20 23 24 25 25 26 27 28 29 28 27 26 26 27 28 29 30 31 32 32 32 33 33 33 33 33 33 34 35 36 36 35 35 35 36 36 37 38 40 39 38 38 38 38 38 38 38 39 39 39 39 39 38 38 38 37 37 38 37 37 38 40 40 41 42 43 44 46 47 48 48 48 49 51 52 52 52 52 51 50
12 13 17 20 20 19 18 18 18 18 20 23 21 20 22 25 28 24 21 20 20 20 19 19 21 22 23 24 25 25 25 25 25 25 26 26 27 28 29 30 30 31 31 32 32 32 32 32 33 33 33 33 34 35 35 34 34 35 36 37 39 40 39 38 37 37 37 37 38 38 38 38 38 38 38 38 38 37 37 37 38 38 38 39 40 40 41 41 41 43 45 46 47 47 47 47 47 49 50 51 51 51 51
12 13 15 18 19 18 17 17 19 19 19 19 19 19 20 22 24 22 20 19 20 20 20 19 19 19 20 21 23 23 24 24 24 26 26 27 27 29 29 29 29 30 31 31 31 32 32 32 32 32 32 32 33 33 33 34 34 35 35 37 39 40 39 37 36 37 37 38 38 38 38 38 38 38 37 37 37 37 37 37 37 38 38 39 39 40 41 41 41 43 44 45 46 47 47 46 45 45 46 47 48 48 49
13 14 15 15 16 16 16 17 18 19 19 19 19 19 20 20 21 20 20 19 20 20 20 19 19 19 19 20 21 21 22 22 23 24 25 26 27 28 29 29 29 30 30 30 30 31 31 31 31 31 31 32 32 32 33 33 34 34 35 36 38 38 37 36 36 37 38 38 39 39 39 38 37 37 36 36 36 37 37 37 38 37 37 37 37 38 38 40 41 42 43 44 45 47 47 47 46 45 45 46 46 46 47
14 15 15 15 15 15 16 16 17 18 19 19 19 20 20 20 20 20 20 19 20 20 20 20 19 19 19 20 20 20 20 20 21 23 24 26 27 28 29 29 30 29 30 30 31 31 31 31 30 30 30 31 31 32 33 33 33 34 35 35 36 36 35 35 36 37 37 38 38 39 39 38 37 36 36 35 35 36 37 37 37 36 35 34 34 35 35 36 38 39 41 43 44 46 47 47 47 47 47 47 47 46 46
15 15 15 15 15 15 16 16 16 17 18 18 19 19 20 20 20 20 20 20 20 20 20 20 20 20 20 20 20 20 20 21 22 24 25 26 27 28 29 29 28 28 28 29 30 30 30 29 29 29 30 30 30 31 33 33 33 34 34 34 34 34 34 35 35 36 36 37 38 38 38 38 36 35 35 35 35 35 35 36 36 35 34 33 34 34 33 33 34 35 37 40 42 44 45 47 48 48 48 48 48 47 47
15 16 16 15 15 15 16 16 16 17 17 18 18 18 19 19 19 19 20 20 20 20 21 22 22 21 21 21 22 22 22 23 24 26 27 27 28 28 27 27 26 26 26 26 26 27 27 26 26 27 29 30 29 30 31 32 32 33 33 33 33 33 33 34 34 35 35 36 37 38 38 37 35 35 35 35 34 34 34 35 35 34 34 34 34 35 34 33 33 33 34 36 38 41 43 45 47 48 49 49 48 48 47
16 16 16 16 15 15 16 16 17 17 17 17 18 18 18 18 18 18 19 20 20 21 21 22 23 23 23 23 23 23 23 24 25 26 28 29 29 29 28 28 27 27 26 25 24 24 24 24 25 26 27 29 30 30 30 30 31 32 32 32 32 33 33 33 33 34 35 35 36 37 38 37 35 34 34 34 34 34 34 34 34 34 34 35 35 35 35 35 35 34 35 35 36 38 40 42 45 47 48 48 49 48 48
17 16 17 18 16 16 16 16 17 17 17 17 17 17 17 17 17 18 19 20 20 22 23 24 24 25 25 26 26 26 26 25 26 26 28 29 29 29 29 28 28 27 26 26 25 25 24 24 25 25 27 28 29 29 30 30 31 32 32 32 32 33 33 33 33 33 34 35 35 36 37 36 35 34 34 33 34 34 34 34 34 34 34 34 34 34 35 35 35 34 35 35 36 37 38 40 42 44 46 47 48 48 48